Home   Weather   Richmond   Past weeks

Flag for Canada Past Weather in Richmond, British Columbia, Canada — Yesterday and Last 2 Weeks

Now
68 °F

Sunny.


Feels Like: 68 °F
Forecast: 58 / 78 °F
Wind: 12 mph from Northwest

Location: Vancouver International Airport

Current Time: Jun 23, 2017 at 6:57:05 pm

Latest Report: Jun 23, 2017 at 6:00 pm


Visibility: 30 mi

Pressure: 30.16 "Hg

Humidity: 69%

Dew Point: 57 °F

Location of RichmondLocation

Past Weather in Richmond — Graph

°F

Richmond Temperature Yesterday

Maximum temperature yesterday: 66 °F (at 4:00 pm)
Minimum temperature yesterday: 52 °F (at 4:00 am)
Average temperature yesterday: 60 °F

High & Low Weather Summary for the Past Weeks

 TemperatureHumidityPressure
High70 °F (Jun 23, 3:00 pm)100% (Jun 15, 8:00 pm)30.34 "Hg (Jun 15, 8:00 pm)
Low48 °F (Jun 9, 3:00 am)48% (Jun 9, 6:00 pm)29.77 "Hg (Jun 15, 3:32 pm)
Average58 °F78%30.05 "Hg
* Reported Jun 8 5:00 pm — Jun 23 5:00 pm, Richmond. Weather by CustomWeather, © 2017

Note: Actual official high and low records may vary slightly from our data, if they occured in-between our weather recording intervals... More about our weather records

Advertising

Richmond Weather History for the Previous 24 Hours

Scroll right to see more
 ConditionsComfort  
Time TempWeatherWind HumidityBarometerVisibility
5:00 pm
Fri, Jun 23
70 °FSunny.14 mph64%30.17 "Hg30 mi
4:00 pm70 °FSunny.15 mph69%30.19 "Hg30 mi
3:00 pm70 °FSunny.15 mph64%30.20 "Hg30 mi
2:00 pm68 °FSunny.16 mph69%30.22 "Hg30 mi
1:00 pm68 °FSunny.14 mph64%30.22 "Hg30 mi
12:00 pm66 °FSunny.15 mph73%30.23 "Hg30 mi
11:00 am66 °FSunny.14 mph73%30.24 "Hg30 mi
10:00 am64 °FSunny.14 mph78%30.25 "Hg30 mi
9:00 am63 °FSunny.16 mph77%30.26 "Hg30 mi
8:00 am64 °FSunny.8 mph68%30.25 "Hg30 mi
6:00 am54 °FPassing clouds.No wind82%30.26 "Hg30 mi
5:00 am52 °FClear.2 mph77%30.25 "Hg30 mi
4:00 am55 °FClear.No wind77%30.24 "Hg30 mi
3:00 am55 °FClear.5 mph77%30.23 "Hg30 mi
2:00 am55 °FClear.2 mph88%30.22 "Hg30 mi
1:00 am57 °FClear.5 mph77%30.22 "Hg30 mi
12:00 am59 °FClear.8 mph88%30.22 "Hg30 mi
11:00 pm
Thu, Jun 22
61 °FClear.10 mph83%30.22 "Hg30 mi
10:00 pm61 °FClear.8 mph83%30.21 "Hg30 mi
9:00 pm61 °FPassing clouds.12 mph83%30.21 "Hg30 mi
8:00 pm64 °FSunny.13 mph73%30.22 "Hg30 mi
7:00 pm64 °FSunny.13 mph68%30.23 "Hg30 mi
6:00 pm66 °FPassing clouds.12 mph68%30.25 "Hg30 mi
Weather by CustomWeather, © 2017

See weather overviewHow to use our weather pages